www.pogodaiklimat.ru

Погода и климат >> Архив погоды >> Россия >> Краснодарский край >> Краснодар


АРХИВ ПОГОДЫ в Краснодаре

Время (UTC), дата Ветер
(напр.,м/с)
 
Видим.   Явления Облачность Т
(С)
Тd
(С)
f
(%)
Тe
(С)
Тes
(С)
Комфортность P
(гПа)
Po
(гПа)
Тmin
(С)
Tmax
(С)
R
(мм)
R24
(мм)
S
(см)
15 15.09 СЗ 2 10 км ясно +24.5 +6.7 32 +25 +25 комфорт 1019.2 1015.2 +27.5
18 15.09 С 2 10 км ясно +19.3 +6.9 44 +20 +20 тепло 1020.4 1016.3
21 15.09 СЗ 2 10 км ясно +15.6 +1.5 38 +16 +16 по сезону 1020.3 1016.1
00 16.09 СЗ 2 10 км ясно +13.2 +1.7 46 +13 +13 по сезону 1019.8 1015.6
03 16.09 С 1 10 км ясно +10.6 +2.1 56 +11 +11 холодно 1018.9 1014.7 +10.6
06 16.09 ЮВ 1 10 км ясно +17.5 +7.4 51 +19 +24 тепло 1017.9 1013.8 +10.1
09 16.09 Ю 3 10 км ясно +23.1 +9.6 42 +25 +34 комфорт 1016.1 1012.1
12 16.09 ЮЗ 2 10 км ясно +27.1 +7.2 28 +27 +34 жарко 1013.7 1009.7
15 16.09 З 3 10 км ясно +24.5 +6.4 31 +24 +25 комфорт 1013.0 1009.0 +27.4
18 16.09 СЗ 3 10 км ясно +18.4 +6.1 44 +19 +19 тепло 1014.1 1010.0
21 16.09 ЮЗ 2 10 км ясно +13.7 +8.2 69 +13 +13 прохладно 1014.1 1009.9
00 17.09 Ю 1 10 км ясно +10.9 +8.1 83 +11 +11 прохладно 1013.7 1009.5
03 17.09 Ю 2 10 км 3/0
[Ci fib]
+10.3 +8.4 88 +9 +9 холодно 1013.7 1009.5 +9.7
06 17.09 Ю 2 10 км 3/0
[Ac trans]
+19.8 +10.8 56 +22 +25 комфорт 1013.3 1009.2
09 17.09 ЮЗ 3 10 км 3/3 1000 м
[Sc diur, vesp]
+24.4 +8.7 37 +25 +32 комфорт 1012.0 1008.0
12 17.09 З 4 10 км 3/3 1000 м
[Sc diur, vesp]
+26.4 +7.4 30 +26 +29 жарко 1010.9 1006.9
15 17.09 ЮЗ 5 10 км 8/0
[Ac trans Cc]
+22.3 +7.0 37 +23 +23 комфорт 1011.3 1007.3 +26.6
18 17.09 Ю 5 10 км 9/0
[Ac trans]
+18.8 +12.1 65 +19 +19 тепло 1012.5 1008.4
21 17.09 ЮЗ 6 10 км 10/0
[Ac trans Ci fib]
+19.6 +12.7 64 +21 +21 комфорт 1012.5 1008.4
00 18.09 Ю 4
{11}
10 км 8/0
[Ac trans]
+18.5 +13.0 70 +19 +19 тепло 1011.8 1007.7
03 18.09 Ю 7
{11}
10 км 5/3 1000 м
[Sc Ac trans]
+19.4 +13.6 69 +20 +20 тепло 1011.6 1007.5 +18.4
06 18.09 Ю 9-13
{13}
10 км 4/3 1000 м
[Sc Ac As]
+22.3 +13.7 58 +25 +26 комфорт 1012.5 1008.5
09 18.09 Ю 11-16
{18}
10 км 5/5 1000 м
[Cu med, cong]
+25.2 +13.0 47 +27 +27 жарко 1011.9 1007.9
12 18.09 Ю 13-17
{21}
10 км 3/0
[Ac trans]
+25.7 +12.4 44 +27 +27 жарко 1010.9 1006.9
15 18.09 ЮЗ 10-13
{19}
10 км 3/0
[Ci fib]
+23.3 +10.9 46 +26 +26 жарко 1010.4 1006.4 +26.4
18 18.09 СЗ 5
{15}
4000 м слаб. ливневой дождь 8/8 1000 м
[Cb cap]
+16.3 +14.3 88 +15 +15 прохладно 1015.2 1011.1
21 18.09 З 3 10 км {гроза, ливн. осадки} 9/9 1000 м
[Cb cap]
+17.2 +14.2 83 +17 +17 тепло 1016.4 1012.3
00 19.09 СЗ 3 10 км {гроза, ливн. осадки} 5/5 1000 м
[Cb cap]
+15.4 +8.9 65 +15 +15 по сезону 1017.7 1013.5
03 19.09 штиль 0 10 км 9/9 1000 м
[Cb cap]
+14.3 +10.1 76 +14 +14 по сезону 1019.4 1015.2 +14.0 4
06 19.09 З 2 10 км 8/3 600 м
[Sc diur, vesp Ac trans Ci fib]
+16.5 +5.5 48 +17 +19 по сезону 1020.6 1016.4 +13.5
09 19.09 СЗ 3 10 км 8/1 600 м
[Cu hum Ac trans Ci fib]
+19.7 +4.9 38 +21 +26 комфорт 1020.4 1016.3
12 19.09 СЗ 2 10 км 9/0
[Ac As]
+19.2 +4.6 38 +20 +23 прохладно 1020.2 1016.1
15 19.09 СЗ 1 10 км 10/10 1000 м
[Sc diur, vesp]
+17.2 +7.3 52 +18 +18 прохладно 1020.5 1016.4 +21.2
18 19.09 СЗ 2 10 км {ливн. осадки} 10/10 1000 м
[Cb cap]
+15.0 +8.5 65 +15 +15 прохладно 1020.6 1016.4
21 19.09 С 1 10 км слаб. ливневой дождь 10/10 1000 м
[Cb cap]
+13.3 +9.1 76 +14 +14 по сезону 1020.2 1016.0
00 20.09 штиль 0 10 км слаб. дождь 10/10 1000 м
[Sc diur, vesp]
+12.2 +10.6 90 +12 +12 по сезону 1020.0 1015.8
03 20.09 В 1 10 км {дождь} 9/5 1000 м
[Sc diur, vesp Ac As]
+11.9 +10.5 91 +12 +12 прохладно 1019.3 1015.1 +11.8 2
06 20.09 В 3 10 км {дождь} 9/9 1000 м
[Sc]
+13.9 +9.0 72 +13 +13 прохладно 1018.0 1013.8 +11.7
09 20.09 С 4 10 км 9/8 1000 м
[Sc Ac trans]
+16.5 +8.3 58 +16 +17 прохладно 1016.1 1012.0
12 20.09 С 5 10 км 10/10 600 м
[Sc]
+15.8 +4.6 47 +15 +15 очень
холодно
1015.1 1011.0
15 20.09 С 4 10 км 10/10 1000 м
[Cb cap]
+12.7 +6.0 64 +11 +11 очень
холодно
1015.8 1011.6 +16.7
18 20.09 С 3 4000 м слаб. ливневой дождь 10/10 600 м
[Cb cap]
+9.4 +7.8 90 +7 +7 очень
холодно
1017.5 1013.3
21 20.09 СВ 1 10 км в посл. час ливневой дождь 3/3 1000 м
[Sc]
+8.6 +7.4 92 +8 +8 холодно 1016.6 1012.4
00 21.09 С 1 10 км туман поземный {ливн. осадки} 9/9 300 м
[St]
+7.0 +6.3 95 +6 +6 очень
холодно
1017.4 1013.1
03 21.09 В 1 10 км туман поземный 8/8 300 м
[St]
+8.2 +7.4 95 +7 +7 очень
холодно
1017.3 1013.0 +6.6 3
06 21.09 ЮЗ 3 500 м туман 10/10 300 м
[St]
+8.7 +7.9 95 +6 +6 очень
холодно
1018.5 1014.2
09 21.09 З 4 10 км {туман} 8/6 600 м
[Cb cap Ac As]
+14.1 +5.7 57 +13 +15 холодно 1018.4 1014.2
12 21.09 З 5 10 км {туман} 8/8 1000 м
[Cb cap]
+16.1 +3.6 43 +15 +16 очень
холодно
1018.5 1014.4
15 21.09 З 4
{15}
10 км {ливн. осадки} 6/3 1000 м
[Cb cap Ac As]
+11.7 +5.9 68 +10 +10 очень
холодно
1020.0 1015.8 +16.8 1
18 21.09 З 2 10 км {ливн. осадки} 8/4 1000 м
[Cb cap Ac As]
+9.7 +4.2 69 +8 +8 очень
холодно
1021.8 1017.5
21 21.09 ЮЗ 4 10 км 8/0
[Ac As]
+8.6 +5.3 80 +6 +6 очень
холодно
1022.3 1018.0
00 22.09 З 3 10 км 5/0
[Ac As]
+7.8 +4.5 80 +5 +5 очень
холодно
1022.6 1018.3
03 22.09 З 3 10 км 3/0
[Ac As]
+7.7 +3.6 75 +5 +5 очень
холодно
1023.1 1018.8 +7.4
06 22.09 ЮЗ 5 10 км ясно +12.9 +4.7 57 +11 +13 холодно 1023.4 1019.2 +7.2
09 22.09 З 8-13
{13}
10 км 8/5 1000 м
[Sc diur, vesp Ac trans]
+18.1 +1.8 34 +17 +18 прохладно 1021.8 1017.7
12 22.09 ЮЗ 8-12
{16}
10 км 9/9 600 м
[Sc diur, vesp]
+17.9 +3.3 38 +17 +17 холодно 1020.9 1016.8

 

Местоположение метеостанции Краснодар (Краснодарский край, Россия): широта 45.05 долгота 39.03 высота над уровнем моря 29 м.

В архиве по умолчанию представлена погода в Краснодаре за последнюю неделю. Архивные данные за месяц целиком и за предыдущие месяцы, начиная с января 2011 года, Вы можете получить, выбрав интересующий диапазон дат из раскрывающегося списка и нажав кнопку "Ввод!".


*Определитесь, кто Вы:
робот инопланетянин человек

Внимание! Время в таблицах - всемирное. Для получения местного времени необходимо прибавить поправку, которая равна 3 ч.

Смотрите также архив погоды в соседних городах и на ближайших метеорологических станциях:

Погода в Горячем Ключе (Краснодарский край, Россия) (47 км)
Погода в Усть-Лабинске (Краснодарский край, Россия) (58 км)
Погода в Кореновске (Краснодарский край, Россия) (59 км)
Погода в Тимашевске (Краснодарский край, Россия) (65 км)
Погода в Славянске-на-Кубани (Краснодарский край, Россия) (76 км)
Погода в Белореченске (Краснодарский край, Россия) (76 км)
Погода в Крымске (Краснодарский край, Россия) (82 км)
Погода в Джубге (Краснодарский край, Россия) (84 км)
Погода в Горном (Краснодарский край, Россия) (88 км)
Погода в Геленджике (Краснодарский край, Россия) (92 км)

Пояснения к столбцам:

Ветер - указаны скорость ветра в м/с - средняя за 10 мин, порывы в срок и между сроками (в фигурных скобках) и направление, откуда дует ветер: С - северный, СВ - северо-восточный, В - восточный, ЮВ - юго-восточный, Ю - южный, ЮЗ - юго-западный, З - западный, СЗ - северо-западный.
Видимость - горизонтальная дальность видимости в метрах или километрах. При видимости от 1 до 10 км при отсутствии осадков обычно наблюдается дымка, при ухудшении видимости до 1 км и менее - туман. В сухую погоду видимость может ухудшаться дымом, пылью или мглою.
Явления - указаны атмосферные явления, наблюдавшиеся в срок или в последний час перед сроком; фигурными скобками обозначены явления, наблюдавшиеся между сроками (за 1-3 часа до срока); квадратными скобками обозначены град или гололедные отложения с указанием их диаметра в мм.
Облачность - указаны через наклонную черту общая и нижняя облачность в баллах и высота нижней границы облаков в метрах; квадратными скобками обозначены формы облаков: Ci - перистые, Cs - перисто-слоистые, Cc - перисто-кучевые, Ac - высококучевые, As - высокослоистые, Sc - слоисто-кучевые, Ns - слоисто-дождевые, Cu - кучевые, Cb - кучево-дождевые. Подробнее классификацию облаков см. в Атласе облаков (PDF).
T - Температура воздуха - температура, измеренная на высоте 2 м над землей.
Td - Температура точки росы - температура, при понижении до которой содержащийся в воздухе водяной пар достигнет насыщения.
f - Относительная влажность воздуха - влажноcть воздуха, измеренная на высоте 2 м над землей.
Te - Эффективная температура - температура, которую ощущает одетый по сезону человек в тени. Характеристика душности погоды. При расчете учитывается влияние влажности воздуха и скорости ветра на теплоощущения человека.
Tes - Эффективная температура на солнце - температура, которую ощущает человек, с поправкой на солнечный нагрев. Характеристика знойности погоды. Зависит от высоты солнца над горизонтом, облачности и скорости ветра. Ночью, в пасмурную погоду, а также при ветре 12 м/с и более поправка равна нулю.
P - Атмосферное давление - приведенное к уровню моря атмосферное давление.
Po - Атмосферное давление - измеренное на уровне метеостанции атмосферное давление.
Tmin - Минимальная температура - минимум температуры воздуха на высоте 2 м над землей.
Tmax - Максимальная температура - максимум температуры воздуха на высоте 2 м над землей.
R - Количество осадков - Количество выпавших осадков за период времени, мм. При наведении курсора мыши на число - период времени, за который выпало указанное количество осадков.
R24 - Количество осадков - Количество выпавших осадков за 24 часа, мм.
S - Снежный покров - Высота снежного покрова, см. При наведении курсора мыши на число - состояние снежного покрова и степень покрытия местности в баллах.